Flag for Canada Weather past 2 weeks in Oshawa, Ontario, Canada

Now
72 °F

Fog.


Feels Like: 67 °F
Forecast: 70 / 83 °F
Wind: 5 mph from North

Location: Toronto Buttonville

Current Time: Sep 3, 2015 at 7:44:36 AM

Latest Report: Sep 3, 2015 at 7:00 AM


Visibility: 2 mi

Pressure: 29.93 "Hg

Humidity: 94%

Dew point: 70 °F

Location of OshawaLocation

Historic Weather in Oshawa — Graph

°F

Oshawa temperature yesterday

Maximum temperature yesterday: 90 °F (at 3:00 PM)
Minimum temperature yesterday: 66 °F (at 4:00 AM)
Average temperature yesterday: 77 °F

Past Weeks' High & Low Weather Summary

 TemperatureHumidityPressure
High90 °F (Sep 2, 3:00 PM)100% (Aug 29, 6:00 AM)30.23 "Hg (Aug 29, 6:00 AM)
Low50 °F (Aug 28, 5:00 AM)36% (Aug 22, 3:00 PM)29.71 "Hg (Aug 20, 7:00 AM)
Average68 °F75%30.00 "Hg
* Reported Aug 19 6:00 AM — Sep 3 6:00 AM, Oshawa, Weather by CustomWeather, © 2015

Note: Actual official high and low records may vary slightly from our data, if they occured in-between our weather recording intervals... More about our weather records

Advertising

Oshawa weather history for previous 24 hours

 ConditionsComfort  
Time TempWeatherWind HumidityBarometerVisibility
6:00 AM
Thu, Sep 3
72 °FPartly cloudy.2 mph94%29.92 "Hg12 mi
5:00 AM72 °FPassing clouds.5 mph94%29.93 "Hg12 mi
4:00 AM72 °FPassing clouds.2 mph94%29.92 "Hg12 mi
3:00 AM72 °FPassing clouds.2 mph94%29.91 "Hg12 mi
2:00 AM73 °FPassing clouds.3 mph89%29.93 "Hg12 mi
1:00 AM73 °FPassing clouds.3 mph83%29.93 "Hg12 mi
12:00 AM73 °FPassing clouds.5 mph83%29.93 "Hg12 mi
11:00 PM
Wed, Sep 2
75 °FPartly cloudy.6 mph78%29.95 "Hg12 mi
10:00 PM75 °FPassing clouds.3 mph78%29.94 "Hg12 mi
9:00 PM75 °FPassing clouds.5 mph83%29.93 "Hg12 mi
8:00 PM77 °FMostly cloudy.5 mph83%29.91 "Hg10 mi
7:00 PM84 °FSprinkles. Partly sunny.8 mph62%29.90 "Hg12 mi
6:00 PM84 °FBroken clouds.12 mph58%29.90 "Hg12 mi
5:00 PM88 °FScattered clouds.6 mph49%29.91 "Hg12 mi
4:00 PM90 °FPartly sunny.5 mph46%29.93 "Hg10 mi
3:00 PM90 °FBroken clouds.9 mph43%29.95 "Hg10 mi
2:00 PM88 °FPartly sunny.7 mph49%29.96 "Hg10 mi
1:00 PM86 °FScattered clouds.3 mph55%29.98 "Hg10 mi
12:00 PM86 °FPassing clouds.6 mph59%30.00 "Hg8 mi
11:00 AM81 °FPassing clouds.5 mph66%30.02 "Hg7 mi
10:00 AM75 °FSunny.3 mph78%30.02 "Hg7 mi
9:00 AM73 °FSunny.3 mph83%30.03 "Hg7 mi
8:00 AM70 °FPassing clouds.2 mph88%30.03 "Hg8 mi
7:00 AM66 °FPassing clouds.No wind94%30.03 "Hg8 mi
Weather by CustomWeather, © 2015

See weather overviewHow to use our weather pages